Location: Berduj
(43.0019°N, 22.3781°E)
Time: 02:49:17
(UTC+00:00)

Cosmos 1821 Rocket - Pass Details

Date: 19 October 2019
Orbit: 945 x 1005 km, 82.9° (Epoch: 13 November)

Event Time Altitude Azimuth Distance (km) Brightness Sun altitude
Rises 16:11:37 0° 351° (N) 3,626 7.0 -6.1°
Reaches altitude 10° 16:14:06 10° 352° (N) 2,680 6.3 -6.6°
Maximum altitude 16:20:14 88° 265° (W) 961 4.0 -7.7°
Drops below altitude 10° 16:26:24 10° 175° (S) 2,692 6.3 -8.8°
Sets 16:28:54 0° 175° (S) 3,643 7.0 -9.3°
